www.pogodaiklimat.ru

Погода и климат >> Архив погоды >> Испания >> Мадрид


АРХИВ ПОГОДЫ в Мадриде

Время (UTC), дата Ветер
(напр.,м/с)
 
Видим.   Явления Облачность Т
(С)
Тd
(С)
f
(%)
Тe
(С)
Тes
(С)
Комфортность P
(гПа)
Po
(гПа)
Тmin
(С)
Tmax
(С)
R
(мм)
R24
(мм)
S
(см)
13 11.02 С 4 30 км 3/0
[Ci sp]
+13.2 -0.4 39 +12 +17 тепло 1027.5 959.2
14 11.02 СВ 3 30 км 3/0
[Ci sp]
+13.8 -0.8 37 +13 +18 тепло 1026.5 958.4
15 11.02 СВ 4 30 км ясно +14.3 -0.2 37 +13 +16 тепло 1026.4 958.5
16 11.02 СВ 3 30 км 1/0
[Ci fib]
+13.9 -0.6 37 +13 +14 тепло 1026.6 958.6
17 11.02 СВ 4 30 км ясно +12.9 -2.1 35 +12 +12 тепло 1027.1 958.8
18 11.02 СВ 3 30 км ясно +10.9 -1.3 43 +9 +9 по сезону 1028.2 959.3 +14.4
19 11.02 СВ 2 30 км ясно +9.4 -0.4 50 +8 +8 тепло 1029.4 960.1
20 11.02 С 2 30 км ясно +8.0 -0.3 56 +7 +7 тепло 1030.7 961.0
21 11.02 СВ 3 30 км ясно +7.7 -0.4 56 +5 +5 по сезону 1031.2 961.4
22 11.02 СВ 3 30 км ясно +6.7 -0.6 60 +4 +4 тепло 1032.2 962.1
23 11.02 С 3 30 км ясно +5.8 -0.6 63 +3 +3 по сезону 1032.8 962.4
00 12.02 С 3 30 км ясно +4.5 -0.8 68 +1 +1 по сезону 1033.1 962.4
01 12.02 С 3 30 км ясно +4.1 -0.7 71 +1 +1 тепло 1033.3 962.5
02 12.02 С 3 30 км ясно +3.5 -0.8 73 -0 -0 по сезону 1033.5 962.5
03 12.02 С 2 30 км ясно +2.8 -0.9 77 0 0 по сезону 1033.4 962.2
04 12.02 С 2 30 км ясно +1.7 -1.5 79 -1 -1 тепло 1033.2 961.7
05 12.02 С 3 30 км ясно +1.1 -1.7 82 -3 -3 по сезону 1033.6 962.0
06 12.02 СЗ 2 30 км ясно -0.1 -2.4 84 -4 -4 прохладно 1033.9 962.0 -0.1
07 12.02 С 2 30 км ясно -1.1 -2.5 90 -5 -5 холодно 1034.6 962.4
08 12.02 С 2 30 км ясно -0.7 -2.2 90 -5 -4 холодно 1034.9 962.8
09 12.02 С 3 30 км ясно +2.7 -1.5 74 -1 +1 холодно 1034.4 963.1
10 12.02 С 2 30 км ясно +6.3 -0.2 63 +4 +9 прохладно 1033.7 963.4
11 12.02 С 1 30 км ясно +8.6 -0.3 54 +8 +16 по сезону 1033.2 963.5
12 12.02 ЮЗ 2 30 км ясно +10.4 +0.5 50 +9 +17 по сезону 1032.4 963.1
13 12.02 СЗ 2 30 км ясно +11.2 -0.1 46 +11 +19 тепло 1031.3 962.3
14 12.02 З 1 30 км 1/0
[Ci fib]
+12.8 -0.2 41 +13 +20 тепло 1030.0 961.5
15 12.02 З 1 25 км 1/0
[Ci fib]
+13.6 +0.2 40 +14 +18 тепло 1029.4 961.1
16 12.02 СЗ 1 30 км 1/0
[Ci fib]
+13.7 -0.5 38 +14 +16 тепло 1029.3 961.0
17 12.02 С 2 30 км 1/0
[Ci fib]
+13.4 +0.5 41 +13 +14 тепло 1029.4 961.1
18 12.02 С 2 30 км 3/0
[Ci fib]
+9.3 -0.1 52 +8 +8 по сезону 1030.5 961.1 +14.8
19 12.02 СЗ 1 30 км 1/0
[Ci fib]
+7.8 -0.5 56 +7 +7 тепло 1031.6 961.8
20 12.02 С 2 30 км ясно +6.9 -0.7 58 +5 +5 по сезону 1032.0 962.0
21 12.02 С 3 30 км 1/0
[Ci fib]
+5.4 -0.7 65 +3 +3 по сезону 1032.7 962.2
22 12.02 С 2 30 км 1/0
[Ci fib]
+4.4 -0.9 68 +2 +2 тепло 1033.2 962.4
23 12.02 С 2 30 км 1/0
[Ci fib]
+3.3 -1.1 73 +1 +1 по сезону 1033.3 962.2
00 13.02 С 2 30 км 1/0
[Ci fib]
+2.5 -1.2 77 -1 -1 прохладно 1033.3 962.0
01 13.02 С 2 30 км 3/0
[Ci fib]
+1.5 -1.6 80 -2 -2 по сезону 1033.4 962.0
02 13.02 С 2 30 км ясно +0.7 -1.9 83 -3 -3 по сезону 1033.6 961.9
03 13.02 СЗ 2 30 км ясно 0.0 -2.3 84 -3 -3 прохладно 1033.7 961.8
04 13.02 СЗ 2 30 км ясно -0.3 -2.4 86 -3 -3 по сезону 1033.7 961.8
05 13.02 С 2 30 км ясно -0.6 -2.4 88 -4 -4 по сезону 1033.7 961.7
06 13.02 С 2 30 км ясно -1.4 -2.9 90 -5 -5 прохладно 1034.0 961.7 -1.4
07 13.02 СЗ 1 30 км ясно -1.5 -3.1 89 -4 -4 прохладно 1034.1 961.8
08 13.02 С 1 30 км ясно -0.8 -2.3 90 -3 -2 холодно 1034.5 962.4
09 13.02 СЗ 2 26 км ясно +2.4 -1.1 78 0 +3 прохладно 1033.7 962.4
10 13.02 З 2 29 км ясно +5.6 +0.4 69 +3 +8 прохладно 1032.9 962.5
11 13.02 З 1 18 км ясно +9.0 +2.4 63 +9 +17 по сезону 1031.9 962.4
12 13.02 З 2 30 км ясно +11.8 +3.0 55 +11 +20 по сезону 1030.8 962.0
13 13.02 З 2 30 км ясно +13.2 +3.4 51 +13 +21 тепло 1029.5 961.1
14 13.02 З 1 30 км ясно +15.1 +2.8 44 +16 +23 тепло 1028.1 960.3
15 13.02 З 1 28 км ясно +16.2 +2.9 41 +17 +21 тепло 1027.4 959.9
16 13.02 З 1 30 км ясно +16.3 +2.8 40 +17 +19 тепло 1027.2 959.6
17 13.02 СЗ 1 30 км ясно +15.6 +2.4 41 +16 +17 тепло 1027.2 959.6
18 13.02 СЗ 2 30 км н/о +12.5 +2.0 49 +12 +12 тепло 1028.4 959.9 +16.7
19 13.02 СЗ 2 30 км ясно +9.9 +1.8 57 +9 +9 тепло 1029.5 960.3
20 13.02 С 2 30 км ясно +8.4 +1.5 62 +7 +7 тепло 1030.4 960.9
21 13.02 С 2 30 км ясно +6.8 +0.9 66 +5 +5 по сезону 1031.1 961.1
22 13.02 С 3 30 км ясно +5.5 +0.8 72 +3 +3 тепло 1032.1 961.7
23 13.02 С 3 30 км ясно +4.1 +0.6 78 +1 +1 по сезону 1032.7 961.9
00 14.02 С 3 30 км ясно +3.0 -0.1 80 -1 -1 прохладно 1033.2 962.1
01 14.02 С 3 30 км ясно +2.3 -0.7 81 -1 -1 по сезону 1033.6 962.3
02 14.02 СЗ 3 30 км ясно +1.8 -0.9 82 -2 -2 по сезону 1033.7 962.2
03 14.02 С 2 30 км ясно +0.2 -1.7 87 -3 -3 прохладно 1034.1 962.3
04 14.02 З 1 30 км ясно 0.0 -1.5 90 -2 -2 по сезону 1034.3 962.4
05 14.02 С 2 30 км ясно -0.7 -2.0 91 -4 -4 по сезону 1034.6 962.5
06 14.02 С 2 30 км ясно -1.2 -2.6 90 -4 -4 прохладно 1035.2 962.9 -1.2
07 14.02 С 2 16 км ясно -1.9 -2.8 94 -5 -5 холодно 1035.7 963.2
08 14.02 СЗ 1 25 км ясно -1.0 -2.2 92 -3 -2 холодно 1036.1 963.8
09 14.02 штиль 0 30 км ясно +3.0 0.0 81 +2 +6 по сезону 1035.2 963.9
10 14.02 СЗ 1 22 км ясно +5.8 -0.5 64 +5 +11 по сезону 1034.5 964.0
11 14.02 В 2 30 км ясно +9.3 -1.2 48 +9 +16 по сезону 1033.2 963.7
12 14.02 ЮВ 3 30 км ясно +11.2 -1.3 42 +10 +17 по сезону 1031.9 962.8
13 14.02 Ю 2 23 км ясно +12.3 -0.3 42 +12 +20 тепло 1030.5 961.8
14 14.02 Ю 3 30 км н/о +13.3 +0.6 42 +13 +13 тепло 1029.4 961.0
15 14.02 Ю 2 30 км ясно +14.6 +1.7 42 +15 +19 тепло 1028.3 960.3
16 14.02 СЗ 2 30 км ясно +14.2 +1.7 43 +14 +16 тепло 1028.0 960.0
17 14.02 С 2 30 км ясно +13.7 +1.4 43 +14 +14 тепло 1027.8 959.7
18 14.02 С 2 30 км ясно +10.6 +0.5 50 +10 +10 по сезону 1028.8 959.8 +14.9
19 14.02 С 2 30 км ясно +7.9 -0.1 57 +6 +6 тепло 1029.8 960.2
20 14.02 штиль 0 30 км ясно +7.0 -0.5 59 +7 +7 по сезону 1030.4 960.5
21 14.02 С 2 30 км ясно +5.2 -1.1 64 +3 +3 по сезону 1031.2 960.8
22 14.02 С 2 30 км ясно +4.3 -1.2 67 +2 +2 тепло 1031.5 960.8
23 14.02 С 2 30 км ясно +3.7 -1.7 68 +1 +1 по сезону 1031.5 960.7
00 15.02 С 3 30 км ясно +1.9 -2.2 74 -2 -2 прохладно 1032.4 961.0
01 15.02 С 1 30 км ясно +1.4 -2.2 77 -0 -0 по сезону 1032.3 960.8
02 15.02 С 2 30 км ясно +0.5 -2.5 80 -3 -3 по сезону 1032.3 960.7
03 15.02 С 2 30 км ясно -0.1 -2.7 83 -4 -4 прохладно 1032.3 960.5
04 15.02 С 2 30 км ясно -0.6 -2.8 85 -4 -4 по сезону 1032.4 960.5
05 15.02 СЗ 2 30 км ясно -1.1 -3.0 87 -4 -4 по сезону 1032.5 960.4
06 15.02 СЗ 2 30 км ясно -1.3 -3.1 88 -5 -5 прохладно 1032.6 960.5 -1.3
07 15.02 С 2 23 км ясно -1.8 -3.4 89 -6 -6 холодно 1032.7 960.4
08 15.02 С 2 26 км ясно -1.1 -2.7 89 -4 -3 холодно 1033.2 961.1
09 15.02 штиль 0 26 км ясно +2.5 -1.2 77 +2 +5 по сезону 1032.3 961.1
10 15.02 ЮЗ 1 25 км ясно +5.9 +0.1 66 +5 +11 по сезону 1031.1 960.9
11 15.02 Ю 2 17 км ясно +8.8 +1.6 61 +8 +16 по сезону 1030.0 960.5
12 15.02 ЮЗ 2 27 км ясно +11.6 +3.2 56 +11 +20 по сезону 1028.5 959.8
13 15.02 Ю 2 30 км ясно +13.7 +3.6 50 +13 +21 тепло 1026.7 958.7
14 15.02 Ю 2 23 км ясно +15.2 +3.0 44 +16 +22 тепло 1025.5 957.9
15 15.02 Ю 2 25 км ясно +16.5 +3.5 42 +17 +21 тепло 1024.4 957.1
16 15.02 Ю 2 30 км ясно +16.7 +2.8 39 +17 +19 тепло 1023.9 956.7
17 15.02 Ю 2 30 км ясно +16.3 +2.6 40 +17 +17 тепло 1023.7 956.4
18 15.02 штиль 0 27 км ясно +12.1 +2.3 51 +12 +12 тепло 1025.0 956.7 +16.7
19 15.02 С 1 30 км ясно +9.0 +2.3 63 +9 +9 тепло 1026.3 957.1
20 15.02 С 3 30 км ясно +7.9 +1.6 64 +6 +6 по сезону 1026.7 957.2
21 15.02 СЗ 1 25 км ясно +5.8 +1.3 73 +5 +5 по сезону 1027.9 957.9
22 15.02 СЗ 3 21 км ясно +5.4 +1.6 76 +2 +2 по сезону 1028.4 958.3
23 15.02 С 2 18 км ясно +4.7 +1.4 79 +2 +2 по сезону 1028.7 958.4
00 16.02 С 2 21 км ясно +3.9 +0.8 80 +1 +1 по сезону 1029.1 958.5
01 16.02 СЗ 2 24 км ясно +3.1 +0.6 84 +1 +1 тепло 1029.4 958.6
02 16.02 С 2 25 км ясно +2.3 +0.1 85 -0 -0 по сезону 1029.5 958.5
03 16.02 СЗ 2 30 км ясно +1.7 -0.5 85 -2 -2 прохладно 1029.4 958.2
04 16.02 С 2 30 км ясно +1.1 -0.7 88 -2 -2 по сезону 1029.1 957.8
05 16.02 СЗ 1 30 км ясно +0.8 -1.1 87 -1 -1 по сезону 1029.5 958.1
06 16.02 С 2 30 км ясно +0.2 -1.2 90 -3 -3 прохладно 1029.9 958.4 +0.2
07 16.02 С 2 30 км 1/0
[Ci fib]
+0.1 -1.4 90 -4 -4 прохладно 1030.3 958.7
08 16.02 СЗ 1 30 км 1/0
[Ci fib]
+1.0 -0.9 87 -1 0 прохладно 1030.7 959.2
09 16.02 штиль 0 30 км 1/0
[Ci fib]
+4.7 +0.6 75 +4 +8 по сезону 1030.0 959.6
10 16.02 СЗ 3 30 км 1/0
[Ci fib]
+8.3 +2.4 66 +6 +10 по сезону 1029.0 959.6
11 16.02 СВ 3 30 км 1/0
[Ci fib]
+13.3 -0.5 39 +13 +19 тепло 1027.5 959.3
12 16.02 В 3 10 км ясно +15.0 -2.3 30 +15 +21 тепло 1026.4 958.6
13 16.02 В 2 30 км ясно +16.0 -2.1 29 +16 +24 тепло 1025.2 957.6
14 16.02 ЮВ 4 30 км ясно +17.4 -2.2 26 +17 +21 тепло 1023.7 956.6
15 16.02 ЮВ 5 30 км ясно +17.8 -1.4 27 +17 +19 тепло 1022.8 955.8
16 16.02 ЮВ 6 30 км ясно +17.4 -1.8 27 +17 +18 тепло 1022.4 955.4
17 16.02 ЮВ 5 30 км 1/0
[Ci fib]
+16.4 -2.3 28 +16 +16 тепло 1022.5 955.2
18 16.02 ЮВ 4 30 км ясно +14.4 -2.0 32 +14 +14 тепло 1023.5 955.8 +18.1
19 16.02 ЮВ 3 30 км ясно +12.3 -2.3 36 +11 +11 тепло 1024.9 956.6
20 16.02 ЮВ 2 30 км ясно +10.3 -2.5 41 +10 +10 тепло 1025.8 956.9
21 16.02 СЗ 1 30 км ясно +7.2 -3.0 48 +8 +8 по сезону 1027.0 957.4
22 16.02 штиль 0 30 км ясно +6.6 -3.5 48 +6 +6 тепло 1027.4 957.6
23 16.02 СЗ 2 30 км ясно +4.7 -2.0 62 +2 +2 по сезону 1027.9 957.6
00 17.02 СЗ 3 30 км ясно +3.2 -2.2 68 -1 -1 прохладно 1028.3 957.6
01 17.02 СЗ 2 30 км ясно +1.9 -2.5 73 -1 -1 по сезону 1028.6 957.5
02 17.02 СЗ 2 30 км ясно +0.8 -3.0 76 -3 -3 по сезону 1028.7 957.3
03 17.02 С 2 30 км ясно +0.2 -3.1 78 -3 -3 прохладно 1028.3 956.9
04 17.02 С 2 30 км ясно -0.6 -3.2 83 -4 -4 по сезону 1028.3 956.7
05 17.02 СЗ 3 30 км ясно -1.2 -3.9 82 -6 -6 прохладно 1028.7 956.9
06 17.02 С 3 30 км ясно -0.4 -3.4 80 -5 -5 прохладно 1028.3 956.7 -1.3
07 17.02 СЗ 1 30 км ясно -1.9 -3.9 86 -4 -4 прохладно 1028.9 956.9
08 17.02 С 2 30 км ясно -0.9 -3.3 84 -4 -3 холодно 1028.7 957.0
09 17.02 СЗ 2 30 км ясно +2.3 -2.2 72 -1 +2 холодно 1027.8 956.9
10 17.02 СЗ 2 30 км ясно +6.0 -2.1 56 +4 +9 прохладно 1026.5 956.6
11 17.02 СЗ 2 30 км ясно +10.3 -4.6 35 +10 +18 по сезону 1025.0 956.2
12 17.02 ЮВ 2 30 км 1/0
[Ci sp]
+12.9 -6.2 26 +13 +21 тепло 1023.4 955.3
13 17.02 ЮВ 2 30 км 1/0
[Ci sp]
+14.0 -4.6 27 +14 +23 тепло 1021.9 954.2
14 17.02 Ю 2 30 км 3/0
[Cs]
+15.3 -5.1 24 +16 +22 тепло 1020.6 953.2
15 17.02 ЮЗ 2 30 км 3/0
[Cs]
+16.2 -4.7 23 +17 +21 тепло 1019.4 952.3
16 17.02 штиль 0 30 км ясно +16.6 -4.8 23 +17 +19 тепло 1018.7 951.7
17 17.02 Ю 2 30 км 3/0
[Cs]
+15.6 -3.0 28 +16 +16 тепло 1018.4 951.2
18 17.02 С 1 30 км 4/0
[Ci sp]
+11.4 -4.3 33 +12 +12 тепло 1019.5 951.3 +17.1
19 17.02 С 2 30 км 5/0
[Cs]
+10.1 -4.0 37 +10 +10 тепло 1020.1 951.6
20 17.02 С 2 30 км 8/0
[Cs]
+8.1 -3.2 45 +7 +7 по сезону 1020.9 951.8
21 17.02 С 2 30 км 8/0
[Cs]
+6.5 -2.7 52 +5 +5 по сезону 1021.7 952.2
22 17.02 СЗ 1 30 км 8/0
[Cs]
+4.0 -2.5 63 +4 +4 тепло 1022.6 952.5
23 17.02 С 2 30 км 8/0
[Cs]
+3.3 -2.6 65 +1 +1 по сезону 1022.7 952.4
00 18.02 С 2 30 км 9/0
[Cs]
+2.7 -2.3 70 -0 -0 прохладно 1022.5 952.1
01 18.02 СЗ 3 30 км 6/0
[Cs]
+2.5 -2.8 68 -1 -1 по сезону 1022.7 952.2
02 18.02 СЗ 2 30 км 5/0
[Cs]
+2.0 -3.0 69 -1 -1 по сезону 1022.9 952.2
03 18.02 С 2 30 км ясно +0.6 -3.2 76 -3 -3 прохладно 1022.8 951.8
04 18.02 С 3 30 км 1/0
[Ci fib]
+1.2 -2.8 75 -3 -3 по сезону 1022.4 951.6
05 18.02 СЗ 3 30 км 3/0
[Ci fib]
+0.4 -3.0 78 -4 -4 по сезону 1022.8 951.7
06 18.02 С 2 30 км 4/0
[Cs]
-0.2 -2.8 83 -3 -3 прохладно 1023.1 951.9 -0.2
07 18.02 СЗ 2 30 км 4/0
[Cs]
-0.6 -3.0 84 -4 -4 прохладно 1023.3 951.9
08 18.02 С 2 29 км 4/0
[Cs]
+1.2 -1.6 82 -2 -1 прохладно 1023.4 952.5
09 18.02 С 2 28 км 6/0
[Cs]
+3.6 -0.2 76 +1 +4 прохладно 1022.8 952.6
10 18.02 С 3 23 км 9/0
[Cs]
+6.4 +1.7 72 +4 +8 тепло 1022.0 952.5
11 18.02 С 2 30 км 9/0
[Cs]
+9.7 +2.3 60 +9 +16 тепло 1020.8 952.2

 

Местоположение метеостанции Мадрид (Испания): широта 40.45 долгота -3.55 высота над уровнем моря 582 м.

В архиве по умолчанию представлена погода в Мадриде за последнюю неделю. Архивные данные за месяц целиком и за предыдущие месяцы, начиная с января 2011 года, Вы можете получить, выбрав интересующий диапазон дат из раскрывающегося списка и нажав кнопку "Ввод!".


*Определитесь, кто Вы:
робот инопланетянин человек

Внимание! Время в таблицах - всемирное. Для получения местного времени необходимо прибавить поправку, которая равна 1 ч.

Смотрите также архив погоды в соседних городах и на ближайших метеорологических станциях:

Погода в Мадриде Буэн-Ретиро (Испания) (12 км)
Погода в Мадриде университет (Испания) (14 км)
Погода в Мадрид аэропорту (Испания) (22 км)
Погода в Мадриде Кольменар (Испания) (33 км)
Погода в Гвадалахаре (Испания) (39 км)
Погода в Навасерраде (Испания) (54 км)
Погода в Сеговии (Испания) (74 км)
Погода в Толедо (Испания) (76 км)
Погода в Авиле (Испания) (100 км)
Погода в Куэнке (Испания) (128 км)

Пояснения к столбцам:

Ветер - указаны скорость ветра в м/с - средняя за 10 мин, порывы в срок и между сроками (в фигурных скобках) и направление, откуда дует ветер: С - северный, СВ - северо-восточный, В - восточный, ЮВ - юго-восточный, Ю - южный, ЮЗ - юго-западный, З - западный, СЗ - северо-западный.
Видимость - горизонтальная дальность видимости в метрах или километрах. При видимости от 1 до 10 км при отсутствии осадков обычно наблюдается дымка, при ухудшении видимости до 1 км и менее - туман. В сухую погоду видимость может ухудшаться дымом, пылью или мглою.
Явления - указаны атмосферные явления, наблюдавшиеся в срок или в последний час перед сроком; фигурными скобками обозначены явления, наблюдавшиеся между сроками (за 1-3 часа до срока); квадратными скобками обозначены град или гололедные отложения с указанием их диаметра в мм.
Облачность - указаны через наклонную черту общая и нижняя облачность в баллах и высота нижней границы облаков в метрах; квадратными скобками обозначены формы облаков: Ci - перистые, Cs - перисто-слоистые, Cc - перисто-кучевые, Ac - высококучевые, As - высокослоистые, Sc - слоисто-кучевые, Ns - слоисто-дождевые, Cu - кучевые, Cb - кучево-дождевые. Подробнее классификацию облаков см. в Атласе облаков (PDF).
T - Температура воздуха - температура, измеренная на высоте 2 м над землей.
Td - Температура точки росы - температура, при понижении до которой содержащийся в воздухе водяной пар достигнет насыщения.
f - Относительная влажность воздуха - влажноcть воздуха, измеренная на высоте 2 м над землей.
Te - Эффективная температура - температура, которую ощущает одетый по сезону человек в тени. Характеристика душности погоды. При расчете учитывается влияние влажности воздуха и скорости ветра на теплоощущения человека.
Tes - Эффективная температура на солнце - температура, которую ощущает человек, с поправкой на солнечный нагрев. Характеристика знойности погоды. Зависит от высоты солнца над горизонтом, облачности и скорости ветра. Ночью, в пасмурную погоду, а также при ветре 12 м/с и более поправка равна нулю.
P - Атмосферное давление - приведенное к уровню моря атмосферное давление.
Po - Атмосферное давление - измеренное на уровне метеостанции атмосферное давление.
Tmin - Минимальная температура - минимум температуры воздуха на высоте 2 м над землей.
Tmax - Максимальная температура - максимум температуры воздуха на высоте 2 м над землей.
R - Количество осадков - Количество выпавших осадков за период времени, мм. При наведении курсора мыши на число - период времени, за который выпало указанное количество осадков.
R24 - Количество осадков - Количество выпавших осадков за 24 часа, мм.
S - Снежный покров - Высота снежного покрова, см. При наведении курсора мыши на число - состояние снежного покрова и степень покрытия местности в баллах.